Orbital Elements at Epoch 2459200.5 (2020-Dec-17.0) TDB
Reference: JPL 28 (heliocentric ecliptic J2000)
Element | Value | Uncertainty (1-sigma) | Units |
e | .04111809150953364 | 3.1753e-08 | |
a | 3.022947818450028 | 1.7893e-08 | au |
q | 2.898649973422455 | 1.0225e-07 | au |
i | 10.21163262939829 | 5.6558e-06 | deg |
node | 24.21937320735335 | 2.0666e-05 | deg |
peri | 77.63171862187231 | 7.6894e-05 | deg |
M | 327.6071753297437 | 7.2861e-05 | deg |
tp | 2459373.239127737909 (2021-Jun-07.73912774) | 0.00038849 | TDB |
period | 1919.748790624846 5.26 | 1.7044e-05 4.666e-08 | d yr |
n | .1875245353757072 | 1.6649e-09 | deg/d |
Q | 3.147245663477602 | 1.8629e-08 | au |
|
| | Orbit Determination Parameters
Additional Information
|